User: anonymous   Login
Location: El Portezuelo
(28.4984°N, 16.3589°W)
Time: 20:04:50
(UTC+00:00)
Language:

Cosmos 2228 - Orbit

View from above orbital plane
View from above orbital plane
View from above satellite
View from above satellite

Ground track
Ground track

The orbit data is extracted from the following two-line orbital elements,

1 22286U 92094A   20088.21781060 +.00000182 +00000-0 +17031-4 0  9994
2 22286 082.5193 136.5603 0020879 355.5281 004.5746 14.88123553452365
Epoch (UTC): 28 March 2020 05:13:38
Eccentricity: 0.0020879
inclination: 82.5193°
perigee height: 589 km
apogee height: 618 km
right ascension of ascending node: 136.5603°
argument of perigee: 355.5281°
revolutions per day: 14.88123553
mean anomaly at epoch: 4.5746°
orbit number at epoch: 45236

The dashed part of the orbit path shows where the satellite is in the earth's shadow,  

DLR